User: anonymous   Login
Location: SAPM � Hemmingford
(45.0500°N, 73.5833°W)
Time: 04:35:23
(UTC-04:00)
Language:

Cosmos 1603 - Orbit

View from above orbital plane
View from above orbital plane
View from above satellite
View from above satellite

Ground track
Ground track

The orbit data is extracted from the following two-line orbital elements,

1 15333U 84106A   17266.53575310 -.00000088 +00000-0 -21278-4 0  9997
2 15333 071.0258 246.4332 0017763 052.1530 308.1196 14.14065200701924
Epoch (UTC): 23 September 2017 12:51:29
Eccentricity: 0.0017763
inclination: 71.0258°
perigee height: 832 km
apogee height: 858 km
right ascension of ascending node: 246.4332°
argument of perigee: 52.1530°
revolutions per day: 14.14065200
mean anomaly at epoch: 308.1196°
orbit number at epoch: 70192

The dashed part of the orbit path shows where the satellite is in the earth's shadow,  

DLR